This is the latest recevied weather packets stored in our database for station/object OZ1IEP-5. If no packets are shown the sender has not sent any weather packets the latest 1 day(s).
| Time | Temp. | Humidity | Pressure | Rain* | Wind** | Luminosity | Snow |
|---|---|---|---|---|---|---|---|
| 1777981805 | 11.67° C | 72% | 1009.9 hPa | 0 mm | 3.13 m/s, 297° | 800 W/m² | - |
| 1777981206 | 11.67° C | 72% | 1009.9 hPa | 0 mm | 0.89 m/s, 300° | 803 W/m² | - |
| 1777980608 | 11.67° C | 73% | 1009.9 hPa | 0 mm | 2.68 m/s, 275° | 809 W/m² | - |
| 1777980005 | 11.67° C | 71% | 1009.9 hPa | 0 mm | 0.45 m/s, 284° | 812 W/m² | - |
| 1777979405 | 11.67° C | 74% | 1009.9 hPa | 0 mm | 0 m/s | 812 W/m² | - |
| 1777978807 | 11.67° C | 76% | 1009.9 hPa | 0 mm | 0.45 m/s, 286° | 810 W/m² | - |
| 1777978205 | 11.67° C | 76% | 1010 hPa | 0 mm | 0 m/s | 812 W/m² | - |
| 1777977606 | 11.11° C | 75% | 1010 hPa | 0 mm | 2.24 m/s, 303° | 816 W/m² | - |
| 1777977008 | 11.67° C | 77% | 1010.1 hPa | 0 mm | 0.45 m/s, 289° | 809 W/m² | - |
| 1777976406 | 11.11° C | 77% | 1010.1 hPa | 0 mm | 0.89 m/s, 301° | 809 W/m² | - |
| 1777975805 | 11.11° C | 76% | 1010.2 hPa | 0 mm | 2.68 m/s, 305° | 810 W/m² | - |
| 1777975209 | 11.11° C | 77% | 1010.3 hPa | 0 mm | 1.34 m/s, 271° | 796 W/m² | - |
| 1777974605 | 11.67° C | 79% | 1010.3 hPa | 0 mm | 0.89 m/s, 293° | 800 W/m² | - |
| 1777974005 | 11.11° C | 80% | 1010.3 hPa | 0 mm | 1.34 m/s, 305° | 513 W/m² | - |
| 1777973407 | 11.11° C | 79% | 1010.3 hPa | 0 mm | 0.45 m/s, 292° | 680 W/m² | - |
| 1777972806 | 11.11° C | 80% | 1010.3 hPa | 0 mm | 2.68 m/s, 287° | 772 W/m² | - |
| 1777972205 | 11.11° C | 80% | 1010.3 hPa | 0 mm | 1.34 m/s, 301° | 745 W/m² | - |
| 1777971607 | 10.56° C | 81% | 1010.2 hPa | 0 mm | 2.24 m/s, 298° | 763 W/m² | - |
| 1777971006 | 10.56° C | 80% | 1010.3 hPa | 0 mm | 2.68 m/s, 299° | 722 W/m² | - |
| 1777970405 | 10.56° C | 79% | 1010.2 hPa | 0 mm | 0.45 m/s, 300° | 724 W/m² | - |
| 1777969807 | 10.56° C | 80% | 1010.2 hPa | 0 mm | 2.24 m/s, 291° | 677 W/m² | - |
| 1777969205 | 10.56° C | 82% | 1010 hPa | 0 mm | 0.45 m/s, 292° | 330 W/m² | - |
| 1777968605 | 10° C | 81% | 1010 hPa | 0 mm | 1.79 m/s, 292° | 185 W/m² | - |
| 1777968007 | 10° C | 82% | 1009.9 hPa | 0 mm | 2.24 m/s, 309° | 84 W/m² | - |
| 1777967405 | 9.44° C | 81% | 1009.9 hPa | 0 mm | 3.13 m/s, 318° | 74 W/m² | - |
* Rain latest hour (hover to see other rain measurements)
** Current wind speed in m/s (hover to see current wind gust speed)